[[{"header":{"parameterUnit":"m.s-1","parameterCategory":1,"la1":30.2991,"la2":30.254,"lo1":-89.0895,"lo2":-89.0444,"dy":0.0017,"dx":0.0017,"nx":28,"ny":28,"refTime":"2024-04-06T03:00:00:Z","depth":0,"parameterNumber":2,"parameterNumberName":"U-component_of_WINDS"},"data":[0,0,0,0,0,0,0,0,0,0,0,0,0,0,0,0,0,0,0,0,0,0,0,0,0,0,0,0,0,0,0,0,0,0,0,0,0,0,0,0,0,0,0,0,0,0,0,0,0,0,0,0,0,0,0,0,0,0,-5.1628,-5.1628,0,-5.1639,-5.1639,-5.1639,-5.146,-5.1455,-5.145,-5.1446,-5.1459,-5.1464,-5.1468,0,0,0,0,0,0,0,0,0,0,0,0,0,-5.1454,-5.1458,-5.1628,-5.1628,-5.1628,-5.1639,-5.1639,-5.1639,-5.1461,-5.1455,-5.1449,-5.1443,-5.1457,-5.1463,-5.1469,0,0,0,0,0,0,0,0,0,0,0,0,0,-5.1504,-5.146,-5.1628,-5.1541,-5.1533,-5.1639,-5.1639,-5.1639,-5.1462,-5.1455,-5.1447,-5.1441,-5.1455,-5.1463,-5.147,-5.166,0,0,-5.1492,-5.1495,0,0,0,0,0,0,0,0,-5.1501,-5.151,-5.1553,-5.1547,-5.1538,-5.154,-5.1582,-5.1646,-5.1464,-5.1489,-5.1446,-5.1437,-5.1492,-5.1496,-5.1514,-5.1661,-5.1661,-5.1493,-5.1497,-5.15,-5.1502,0,0,0,0,0,0,0,-5.1498,-5.1509,-5.1632,-5.1554,-5.1545,-5.1501,-5.15,-5.1593,-5.1531,-5.1486,-5.1473,-5.1477,-5.1487,-5.1507,-5.1513,-5.1662,-5.1492,-5.1499,-5.1503,-5.1506,-5.1964,-5.1971,0,0,0,0,0,0,-5.1506,-5.1507,-5.1632,-5.1632,-5.1501,-5.151,-5.1509,-5.1547,-5.153,-5.152,-5.1483,-5.1469,-5.1498,-5.1505,-5.1513,-5.1734,-5.15,-5.1507,-5.1511,-5.1956,-5.1966,-5.1974,0,0,0,0,0,0,-5.1503,-5.1519,-5.1631,-5.1566,-5.1577,-5.1521,-5.1565,-5.1551,-5.1572,-5.1527,-5.1515,-5.1516,-5.1493,-5.1502,-5.1624,-5.1732,-5.151,-5.1517,-5.1947,-5.1959,-5.197,-5.2179,0,0,0,0,0,0,-5.1499,-5.1519,-5.1591,-5.1569,-5.1581,-5.1744,-5.1572,-5.1557,-5.1584,-5.1566,-5.1555,-5.1546,-5.1488,-5.1615,-5.1632,-5.1738,-5.1523,-5.1937,-5.1952,-5.1966,-5.2162,-5.2196,-5.2226,0,0,0,0,0,-5.1494,-5.165,-5.1596,-5.1612,-5.167,-5.175,-5.1757,-5.1686,-5.1594,-5.1666,-5.1637,-5.1546,-5.1717,-5.1629,-5.1646,-5.1757,-5.193,-5.1948,-5.1965,-5.2148,-5.219,-5.2225,0,0,0,0,0,0,-5.1687,-5.1646,-5.1585,-5.1739,-5.1749,-5.172,-5.1808,-5.1733,-5.177,-5.1751,-5.1662,-5.1661,-5.1798,-5.1789,-5.1691,-5.1939,-5.1807,-5.1829,-5.194,-5.198,-5.2011,-5.201,-5.1529,0,0,0,0,0,-5.1748,-5.1816,-5.1776,-5.1916,-5.1924,-5.1866,-5.1898,-5.1842,-5.185,-5.1853,-5.1833,-5.1845,-5.19,-5.1939,-5.1988,-5.216,-5.2155,-5.2244,-5.2276,-5.2302,-5.2322,-5.2412,-5.2451,-5.2032,-5.2031,-5.2031,0,0,-5.1874,-5.1859,-5.1908,-5.1954,-5.1956,-5.2028,-5.1871,-5.1954,-5.2007,-5.1866,-5.198,-5.1966,-5.1972,-5.212,-5.2184,-5.2117,-5.2437,-5.2324,-5.2346,-5.2351,-5.2434,-5.2473,-5.2509,-5.2043,-5.2041,-5.2039,0,0,-5.2141,-5.2137,-5.2252,-5.2257,-5.226,-5.222,-5.2248,-5.223,-5.2215,-5.2327,-5.2222,-5.2284,-5.2382,-5.2391,-5.2408,-5.2677,-5.2595,-5.2695,-5.2861,-5.2949,-5.2982,-5.3011,-5.3107,-5.3142,-5.2715,-5.2716,-5.2716,0,-5.2297,-5.2402,-5.2322,-5.2412,-5.2435,-5.231,-5.2426,-5.2434,-5.2455,-5.2474,-5.2398,-5.2518,-5.2513,-5.266,-5.2726,-5.2744,-5.2773,-5.2697,-5.2984,-5.3012,-5.3038,-5.3128,-5.3164,-5.2728,-5.2727,-5.2726,-5.2724,0,-5.2594,-5.2668,-5.2761,-5.2783,-5.2816,-5.292,-5.2855,-5.2899,-5.284,-5.2808,-5.2924,-5.2914,-5.2958,-5.2989,-5.2933,-5.3129,-5.3087,-5.2999,-5.2865,-5.3091,-5.3175,-5.3209,-5.2746,-5.2741,-5.2738,-5.2735,0,0,-5.2985,-5.2959,-5.2995,-5.3002,-5.2996,-5.3052,-5.3149,-5.3192,-5.3231,-5.3249,-5.3328,-5.3413,-5.3332,-5.3352,-5.3295,-5.3373,-5.3586,-5.3275,-5.3273,-5.3333,-5.38,-5.3867,-5.3908,-5.3531,-5.3537,-5.3542,-5.38,0,-5.3244,-5.3408,-5.3338,-5.3509,-5.3576,-5.3457,-5.3541,-5.3547,-5.352,-5.3573,-5.3542,-5.3604,-5.3492,-5.3503,-5.3574,-5.3545,-5.3678,-5.3525,-5.3604,-5.3608,-5.3607,-5.3952,-5.4022,-5.4266,-5.3832,-5.3837,-5.3841,0,-5.3569,-5.3599,-5.3777,-5.3757,-5.3783,-5.386,-5.3892,-5.3945,-5.3949,-5.3923,-5.3945,-5.3871,-5.3964,-5.383,-5.3958,-5.3856,-5.3884,-5.3875,-5.3882,-5.3887,-5.3739,-5.3967,-5.4342,-5.4379,-5.3892,-5.3888,-5.3884,0,-5.3836,-5.3921,-5.4037,-5.4048,-5.4028,-5.4085,-5.408,-5.4076,-5.4106,-5.4135,-5.4153,-5.4193,-5.4215,-5.4247,-5.4186,-5.4094,-5.4323,-5.4184,-5.4304,-5.4306,-5.4359,-5.4357,-5.4745,-5.4377,-5.4376,-5.4376,-5.4375,0,-5.4133,-5.4247,-5.4157,-5.4229,-5.4353,-5.4271,-5.4395,-5.4377,-5.4374,-5.4441,-5.434,-5.4405,-5.4319,-5.4376,-5.4328,-5.4441,-5.4452,-5.4434,-5.442,-5.4444,-5.4446,-5.4461,-5.4443,-5.4385,-5.4383,-5.4381,-5.438,0,-5.4453,-5.4398,-5.4517,-5.4488,-5.4484,-5.4576,-5.4551,-5.4617,-5.4581,-5.4667,-5.4682,-5.4627,-5.4688,-5.463,-5.4688,-5.4655,-5.4807,-5.4769,-5.4806,-5.4795,-5.492,-5.4909,-5.5332,-5.5383,-5.4982,-5.4986,-5.4989,0,-5.4647,-5.4731,-5.4711,-5.4747,-5.4748,-5.4809,-5.4838,-5.476,-5.4795,-5.4805,-5.487,-5.4922,-5.4959,-5.5062,-5.5028,-5.5072,-5.5033,-5.5178,-5.504,-5.506,-5.5036,-5.5032,-5.504,-5.5207,-5.5212,-5.5216,-5.5219,0,-5.4996,-5.4964,-5.5009,-5.5046,-5.5083,-5.5109,-5.5126,-5.5162,-5.5081,-5.5126,-5.5186,-5.5215,-5.5274,-5.5327,-5.536,-5.5354,-5.5275,-5.5263,-5.5293,-5.5318,-5.5336,-5.5328,-5.4884,-5.5254,-5.525,-5.5248,-5.5246,-5.5245,-5.5258,-5.5327,-5.5324,-5.5378,-5.5382,-5.54,-5.546,-5.5432,-5.548,-5.5521,-5.5472,-5.5547,-5.5547,-5.5583,-5.5587,-5.5644,-5.5583,-5.5627,-5.5638,-5.565,-5.5668,-5.5327,-5.565,-5.5648,-5.5647,-5.5647,-5.5646,0,-5.5603,-5.5594,-5.5644,-5.5671,-5.5713,-5.5632,-5.5647,-5.5688,-5.5755,-5.5761,-5.58,-5.587,-5.592,-5.589,-5.5933,-5.5985,-5.5949,-5.5999,-5.5994,-5.5994,-5.5721,-5.569,-5.6027,-5.6027,-5.6027,-5.6027,-5.6026,-5.6026,-5.5787,-5.5899,-5.5866,-5.598,-5.5969,-5.6041,-5.6056,-5.6072,-5.6077,-5.6159,-5.62,-5.6179,-5.6171,-5.6212,-5.6255,-5.6245,-5.6266,-5.6329,-5.6306,-5.6051,-5.6014,-5.5978,-5.5949,-5.6334,-5.6335,-5.6574,-5.6577,-5.6578]},{"header":{"parameterUnit":"m.s-1","parameterCategory":1,"la1":30.2991,"la2":30.254,"lo1":-89.0895,"lo2":-89.0444,"dy":0.0017,"dx":0.0017,"nx":28,"ny":28,"refTime":"2024-04-06T03:00:00:Z","depth":0,"parameterNumber":3,"parameterNumberName":"V-component_of_WINDS"},"data":[0,0,0,0,0,0,0,0,0,0,0,0,0,0,0,0,0,0,0,0,0,0,0,0,0,0,0,0,0,0,0,0,0,0,0,0,0,0,0,0,0,0,0,0,0,0,0,0,0,0,0,0,0,0,0,0,0,0,-2.8191,-2.8191,0,-2.8216,-2.8216,-2.8216,-2.8189,-2.8188,-2.8187,-2.8186,-2.821,-2.8211,-2.8213,0,0,0,0,0,0,0,0,0,0,0,0,0,-2.8118,-2.8119,-2.8191,-2.8191,-2.8192,-2.8216,-2.8216,-2.8216,-2.8189,-2.8188,-2.8187,-2.8186,-2.8209,-2.8211,-2.8213,0,0,0,0,0,0,0,0,0,0,0,0,0,-2.8147,-2.812,-2.8191,-2.8181,-2.818,-2.8215,-2.8216,-2.8216,-2.819,-2.8188,-2.8186,-2.8185,-2.8209,-2.8211,-2.8213,-2.8259,0,0,-2.8221,-2.8222,0,0,0,0,0,0,0,0,-2.8145,-2.8149,-2.8182,-2.8182,-2.8181,-2.8198,-2.8199,-2.8231,-2.819,-2.8186,-2.8186,-2.8184,-2.8207,-2.8209,-2.8217,-2.826,-2.8261,-2.8221,-2.8222,-2.8223,-2.8224,0,0,0,0,0,0,0,-2.8143,-2.8148,-2.8201,-2.8183,-2.8182,-2.8174,-2.8177,-2.8205,-2.8205,-2.8186,-2.8184,-2.8188,-2.8206,-2.8215,-2.8218,-2.8261,-2.8221,-2.8223,-2.8224,-2.8225,-2.834,-2.8341,0,0,0,0,0,0,-2.8142,-2.8147,-2.82,-2.8201,-2.8159,-2.8177,-2.818,-2.8194,-2.8204,-2.8205,-2.8189,-2.8186,-2.8212,-2.8215,-2.8218,-2.827,-2.8223,-2.8226,-2.8227,-2.8338,-2.834,-2.8342,0,0,0,0,0,0,-2.8141,-2.8147,-2.8199,-2.8173,-2.8179,-2.818,-2.8196,-2.8195,-2.8204,-2.8207,-2.8206,-2.8198,-2.8211,-2.8215,-2.8249,-2.8271,-2.8227,-2.8229,-2.8336,-2.8339,-2.8341,-2.8376,0,0,0,0,0,0,-2.8139,-2.8147,-2.8165,-2.8174,-2.8181,-2.823,-2.8198,-2.8197,-2.8208,-2.8205,-2.8215,-2.8215,-2.821,-2.8245,-2.8251,-2.8273,-2.8231,-2.8334,-2.8338,-2.834,-2.8373,-2.838,-2.8385,0,0,0,0,0,-2.8136,-2.8174,-2.8166,-2.8173,-2.8204,-2.8231,-2.8235,-2.8228,-2.821,-2.8228,-2.8229,-2.8215,-2.8268,-2.8249,-2.8255,-2.8279,-2.8333,-2.8337,-2.834,-2.837,-2.8378,-2.8385,0,0,0,0,0,0,-2.8168,-2.8175,-2.8167,-2.8209,-2.8219,-2.8226,-2.8248,-2.8237,-2.8253,-2.8249,-2.824,-2.8243,-2.8278,-2.8282,-2.826,-2.8322,-2.8297,-2.8302,-2.8318,-2.8326,-2.8332,-2.8329,-2.8233,0,0,0,0,0,-2.818,-2.8202,-2.8207,-2.8244,-2.825,-2.8248,-2.826,-2.8254,-2.8264,-2.8269,-2.8272,-2.8283,-2.8301,-2.8314,-2.8332,-2.8374,-2.8374,-2.8393,-2.8399,-2.8404,-2.8408,-2.8428,-2.8436,-2.8354,-2.8354,-2.8354,0,0,-2.8205,-2.8211,-2.8226,-2.825,-2.8258,-2.828,-2.8252,-2.8277,-2.8293,-2.8272,-2.8304,-2.8307,-2.8317,-2.8355,-2.8372,-2.8359,-2.8431,-2.8409,-2.8413,-2.8414,-2.8433,-2.8441,-2.8448,-2.8356,-2.8356,-2.8356,0,0,-2.8261,-2.8269,-2.8299,-2.8307,-2.8319,-2.8317,-2.8324,-2.8333,-2.8334,-2.8366,-2.835,-2.8368,-2.8401,-2.8409,-2.8417,-2.8474,-2.8461,-2.848,-2.8511,-2.8531,-2.8538,-2.8543,-2.8562,-2.8569,-2.8484,-2.8484,-2.8485,0,-2.829,-2.8323,-2.8316,-2.8341,-2.8352,-2.8334,-2.8363,-2.8371,-2.8388,-2.8395,-2.8381,-2.8421,-2.8427,-2.8465,-2.8479,-2.8487,-2.8493,-2.8478,-2.8537,-2.8543,-2.8548,-2.8565,-2.8573,-2.8487,-2.8486,-2.8486,-2.8486,0,-2.8357,-2.838,-2.8403,-2.8419,-2.8432,-2.846,-2.8455,-2.8469,-2.8462,-2.8461,-2.8492,-2.8499,-2.8517,-2.8525,-2.8519,-2.8562,-2.8554,-2.8539,-2.8513,-2.8558,-2.8574,-2.8581,-2.849,-2.8489,-2.8488,-2.8488,0,0,-2.8434,-2.8445,-2.8453,-2.8459,-2.847,-2.8487,-2.8513,-2.8531,-2.8541,-2.8553,-2.8574,-2.8601,-2.8587,-2.8596,-2.859,-2.8608,-2.865,-2.8591,-2.8591,-2.86,-2.8696,-2.8706,-2.8714,-2.8642,-2.8643,-2.8644,-2.8694,0,-2.8488,-2.8533,-2.8527,-2.857,-2.859,-2.8573,-2.8595,-2.8603,-2.8603,-2.862,-2.8619,-2.8638,-2.8619,-2.8624,-2.8641,-2.8642,-2.8669,-2.8638,-2.8659,-2.866,-2.8656,-2.8722,-2.8733,-2.878,-2.8701,-2.8702,-2.8703,0,-2.8558,-2.8572,-2.8617,-2.8622,-2.8631,-2.8651,-2.8665,-2.8681,-2.869,-2.8688,-2.8698,-2.8688,-2.8713,-2.8688,-2.872,-2.8699,-2.8708,-2.8709,-2.871,-2.8711,-2.8683,-2.8723,-2.8795,-2.8801,-2.8713,-2.8712,-2.8711,0,-2.8607,-2.8637,-2.8667,-2.8673,-2.8681,-2.8695,-2.8699,-2.8706,-2.8716,-2.8729,-2.8735,-2.875,-2.8758,-2.8769,-2.8763,-2.8746,-2.8796,-2.8771,-2.8794,-2.8794,-2.8805,-2.8804,-2.8877,-2.8813,-2.8813,-2.8813,-2.8813,0,-2.8668,-2.8695,-2.8689,-2.8707,-2.8737,-2.8729,-2.8758,-2.876,-2.8766,-2.8783,-2.877,-2.8787,-2.8778,-2.8794,-2.879,-2.8816,-2.882,-2.8819,-2.8817,-2.8819,-2.8819,-2.8823,-2.8819,-2.8815,-2.8814,-2.8814,-2.8813,0,-2.8727,-2.8724,-2.8755,-2.876,-2.8762,-2.8783,-2.8787,-2.8803,-2.8802,-2.8824,-2.8829,-2.8826,-2.8844,-2.8839,-2.8859,-2.8855,-2.8888,-2.8883,-2.8885,-2.8883,-2.8906,-2.8903,-2.8983,-2.8993,-2.8924,-2.8925,-2.8925,0,-2.8765,-2.8786,-2.8792,-2.8803,-2.8808,-2.8825,-2.8835,-2.8828,-2.8838,-2.8849,-2.8864,-2.888,-2.8892,-2.8921,-2.8921,-2.8935,-2.8929,-2.8956,-2.8931,-2.8932,-2.8927,-2.8925,-2.8926,-2.8961,-2.8961,-2.8962,-2.8963,0,-2.8832,-2.8829,-2.8844,-2.8858,-2.887,-2.8881,-2.889,-2.89,-2.8893,-2.8905,-2.8923,-2.8933,-2.8952,-2.8967,-2.898,-2.8983,-2.8971,-2.8971,-2.8976,-2.8978,-2.8977,-2.8976,-2.8897,-2.8968,-2.8968,-2.8967,-2.8967,-2.8967,-2.8881,-2.8897,-2.8904,-2.892,-2.8927,-2.8935,-2.895,-2.895,-2.8965,-2.898,-2.8975,-2.8994,-2.9,-2.9016,-2.9021,-2.9036,-2.9025,-2.9034,-2.9036,-2.9038,-2.9039,-2.8976,-2.9038,-2.9038,-2.9038,-2.9038,-2.9038,0,-2.8945,-2.8949,-2.8964,-2.8977,-2.8989,-2.8978,-2.8987,-2.8998,-2.9015,-2.9022,-2.9035,-2.9054,-2.9069,-2.9069,-2.9083,-2.9094,-2.9089,-2.9098,-2.9096,-2.9096,-2.9049,-2.9042,-2.9102,-2.9102,-2.9102,-2.9102,-2.9102,-2.9102,-2.898,-2.9007,-2.9005,-2.9034,-2.9037,-2.9055,-2.9061,-2.9069,-2.9074,-2.9096,-2.9108,-2.9109,-2.9112,-2.9126,-2.9139,-2.9138,-2.9143,-2.9154,-2.9151,-2.9107,-2.91,-2.9094,-2.9087,-2.9155,-2.9155,-2.9197,-2.9197,-2.9198]}]]